User: anonymous   Login
Location: Peterborough
(44.3091°N, 78.3197°W)
Time: 15:32:07
(UTC-04:00)
Language:

Tiros 1 despin weight - Orbit

View from above orbital plane
View from above orbital plane
View from above satellite
View from above satellite

Ground track
Ground track

The orbit data is extracted from the following two-line orbital elements,

1   115U 60002D   24164.53638249  .00003870  00000-0  42096-3 0  9994
2   115  48.1643  95.0799 0031091 203.0428 156.9094 14.89626580429409
Epoch (UTC): 12 June 2024 12:52:23
Eccentricity: 0.0031091
inclination: 48.1643°
perigee height: 577 km
apogee height: 621 km
right ascension of ascending node: 95.0799°
argument of perigee: 203.0428°
revolutions per day: 14.89626580
mean anomaly at epoch: 156.9094°
orbit number at epoch: 42940

The dashed part of the orbit path shows where the satellite is in the earth's shadow,  

DLR